contact:dominique.lefevre@mio.osupytheas.fr, maurice.libes@osupytheas.fr, didier.mallarino@osupytheas.fr
Project:EMSO http://www.emso-fr.org/EMSO-France
Depth: 2436.0 m
Title:EMSO Ligure Ouest : Data MII capteur AQUADOPP
Date,Latitude,Longitude,X_East,Y_North,Z_Up,Amplitude_X,Amplitude_Y,Amplitude_Z,Batterie,SoundSpeed,Heading,Pitch,Roll,Pressure,TIS,Speed,Direction
, degrees North, degrees East, m.s-1, m.s-1,m.s-1, 1, 1, 1, Volt, m.s-1, degree, degree, degree, dbar, degree_C, m.s-1, degree
2020-04-21T00:04:03,42.805,6.029,0.012,0.033,0.015,103.0,112.0,101.0,13.4,1505.3,328.6,-0.7,1.8,2470.199,13.31,0.035,20.0
2020-04-21T00:07:03,42.805,6.029,-0.002,0.021,-0.051,102.0,112.0,102.0,13.3,1505.3,326.5,-0.7,1.8,2470.198,13.32,0.021,354.6
2020-04-21T00:10:03,42.805,6.029,-0.035,0.034,-0.051,104.0,113.0,105.0,13.3,1505.3,325.0,-0.7,1.8,2470.183,13.33,0.048,314.2
2020-04-21T00:13:03,42.805,6.029,-0.001,0.015,-0.034,102.0,111.0,102.0,13.3,1505.3,326.9,-0.7,1.8,2470.178,13.33,0.015,356.2
2020-04-21T00:16:03,42.805,6.029,-0.008,0.042,-0.002,104.0,112.0,100.0,13.4,1505.3,327.0,-0.7,1.8,2470.162,13.33,0.042,349.2
2020-04-21T00:19:03,42.805,6.029,0.002,0.038,-0.015,103.0,112.0,99.0,13.3,1505.3,326.0,-0.7,1.8,2470.178,13.33,0.038,3.0
2020-04-21T00:22:03,42.805,6.029,-0.002,0.02,-0.036,102.0,112.0,100.0,13.4,1505.3,323.7,-0.6,1.8,2470.186,13.33,0.02,354.3
2020-04-21T00:25:03,42.805,6.029,-0.009,0.035,-0.058,103.0,113.0,101.0,13.4,1505.3,326.0,-0.7,1.8,2470.187,13.33,0.036,345.6
2020-04-21T00:28:03,42.805,6.029,0.0,0.003,-0.033,102.0,111.0,101.0,13.4,1505.3,326.5,-0.8,1.8,2470.189,13.33,0.003,0.0
2020-04-21T00:31:03,42.805,6.029,-0.008,0.013,-0.01,104.0,111.0,101.0,13.4,1505.3,323.7,-0.7,1.8,2470.176,13.33,0.015,328.4
2020-04-21T00:34:03,42.805,6.029,0.0,0.018,-0.057,104.0,110.0,99.0,13.4,1505.3,323.5,-0.7,1.9,2470.202,13.33,0.018,0.0
2020-04-21T00:37:03,42.805,6.029,-0.001,0.025,-0.011,102.0,111.0,99.0,13.4,1505.3,328.5,-0.7,1.9,2470.191,13.33,0.025,357.7
2020-04-21T00:40:03,42.805,6.029,-0.022,0.039,-0.043,104.0,112.0,100.0,13.3,1505.3,325.1,-0.7,1.8,2470.185,13.33,0.044,330.6
2020-04-21T00:43:02,42.805,6.029,-0.017,0.042,-0.007,102.0,111.0,99.0,13.3,1505.3,326.7,-0.7,1.8,2470.18,13.33,0.045,338.0
2020-04-21T00:46:03,42.805,6.029,-0.015,0.047,-0.006,103.0,111.0,100.0,13.3,1505.3,324.3,-0.7,1.8,2470.203,13.33,0.049,342.3
2020-04-21T00:49:03,42.805,6.029,-0.015,0.031,-0.046,102.0,112.0,99.0,13.4,1505.3,324.6,-0.7,1.8,2470.194,13.33,0.034,334.2
2020-04-21T00:52:03,42.805,6.029,0.021,0.036,-0.037,100.0,110.0,100.0,13.3,1505.3,326.9,-0.7,1.8,2470.161,13.33,0.041,30.3
2020-04-21T00:55:03,42.805,6.029,0.0,0.031,-0.016,101.0,112.0,99.0,13.3,1505.3,322.6,-0.7,1.8,2470.202,13.33,0.03,0.0
2020-04-21T00:58:03,42.805,6.029,-0.022,0.037,-0.064,104.0,112.0,100.0,13.3,1505.3,326.5,-0.7,1.8,2470.202,13.33,0.043,329.3
2020-04-21T01:04:03,42.805,6.029,0.021,0.044,-0.012,103.0,113.0,102.0,13.3,1505.3,324.1,-0.7,1.8,2470.246,13.31,0.048,25.5
2020-04-21T01:07:03,42.805,6.029,-0.003,0.031,-0.033,104.0,111.0,99.0,13.4,1505.3,324.5,-0.7,1.8,2470.181,13.32,0.031,354.5
2020-04-21T01:10:03,42.805,6.029,-0.006,0.03,-0.006,102.0,112.0,101.0,13.3,1505.3,325.8,-0.7,1.8,2470.19,13.33,0.03,348.7
2020-04-21T01:13:03,42.805,6.029,0.0,0.035,-0.026,100.0,110.0,100.0,13.3,1505.3,326.5,-0.7,1.8,2470.21,13.33,0.035,0.0
2020-04-21T01:16:03,42.805,6.029,0.009,0.044,-0.025,105.0,111.0,100.0,13.4,1505.3,327.4,-0.7,1.8,2470.212,13.33,0.044,11.6
2020-04-21T01:19:03,42.805,6.029,0.004,0.032,-0.01,104.0,114.0,101.0,13.4,1505.3,327.9,-0.7,1.9,2470.198,13.33,0.032,7.1
2020-04-21T01:22:03,42.805,6.029,-0.009,0.015,-0.035,104.0,110.0,101.0,13.3,1505.3,324.2,-0.7,1.8,2470.222,13.33,0.017,329.0
2020-04-21T01:25:03,42.805,6.029,0.012,0.021,0.006,102.0,112.0,99.0,13.4,1505.3,324.8,-0.7,1.8,2470.214,13.33,0.024,29.7
2020-04-21T01:28:03,42.805,6.029,0.006,0.022,-0.015,102.0,110.0,100.0,13.3,1505.3,327.7,-0.7,1.9,2470.215,13.33,0.022,15.3
2020-04-21T01:31:03,42.805,6.029,-0.004,0.033,-0.028,102.0,112.0,101.0,13.4,1505.3,325.3,-0.7,1.8,2470.217,13.33,0.033,353.1
2020-04-21T01:34:03,42.805,6.029,-0.024,0.012,-0.055,100.0,111.0,101.0,13.4,1505.3,325.5,-0.7,1.8,2470.169,13.33,0.026,296.6
2020-04-21T01:37:03,42.805,6.029,-0.017,0.027,-0.026,101.0,113.0,100.0,13.4,1505.3,324.6,-0.7,1.8,2470.212,13.33,0.031,327.8
2020-04-21T01:40:03,42.805,6.029,-0.02,0.018,-0.03,102.0,113.0,101.0,13.4,1505.3,328.0,-0.7,1.9,2470.21,13.33,0.026,312.0
2020-04-21T01:43:03,42.805,6.029,-0.03,0.03,-0.072,102.0,111.0,99.0,13.3,1505.3,328.1,-0.7,1.8,2470.215,13.33,0.042,315.0
2020-04-21T01:46:03,42.805,6.029,-0.004,0.032,-0.03,103.0,112.0,101.0,13.4,1505.3,325.3,-0.7,1.8,2470.204,13.33,0.032,352.9
2020-04-21T01:49:03,42.805,6.029,-0.024,0.037,-0.022,101.0,113.0,101.0,13.4,1505.3,324.7,-0.7,1.8,2470.187,13.33,0.044,327.0
2020-04-21T01:52:03,42.805,6.029,0.0,0.028,-0.017,101.0,112.0,100.0,13.4,1505.3,325.8,-0.7,1.8,2470.21,13.33,0.028,0.0
2020-04-21T01:55:03,42.805,6.029,-0.013,0.03,-0.03,100.0,112.0,101.0,13.3,1505.3,324.2,-0.7,1.8,2470.223,13.33,0.032,336.6
2020-04-21T01:58:03,42.805,6.029,0.007,0.027,-0.016,102.0,110.0,101.0,13.3,1505.3,327.8,-0.7,1.8,2470.193,13.33,0.027,14.5
2020-04-21T02:04:03,42.805,6.029,0.002,0.014,-0.013,100.0,111.0,101.0,13.3,1505.3,324.4,-0.7,1.8,2470.244,13.31,0.014,8.1
2020-04-21T02:07:03,42.805,6.029,-0.011,0.024,-0.049,103.0,112.0,101.0,13.4,1505.3,324.0,-0.7,1.8,2470.261,13.32,0.026,335.4
2020-04-21T02:10:03,42.805,6.029,0.003,0.039,-0.012,103.0,111.0,99.0,13.4,1505.3,328.3,-0.7,1.8,2470.216,13.33,0.039,4.4
2020-04-21T02:13:02,42.805,6.029,-0.011,0.036,-0.031,101.0,111.0,100.0,13.3,1505.3,328.1,-0.7,1.9,2470.229,13.33,0.037,343.0
2020-04-21T02:16:03,42.805,6.029,0.0,0.021,-0.004,103.0,112.0,100.0,13.4,1505.3,326.2,-0.7,1.8,2470.28,13.33,0.021,0.0
2020-04-21T02:19:03,42.805,6.029,-0.005,0.026,-0.026,104.0,112.0,101.0,13.4,1505.3,327.7,-0.7,1.8,2470.254,13.33,0.026,349.1
2020-04-21T02:22:03,42.805,6.029,0.013,0.034,-0.018,101.0,110.0,101.0,13.4,1505.3,325.0,-0.7,1.8,2470.205,13.33,0.036,20.9
2020-04-21T02:25:03,42.805,6.029,-0.01,0.05,-0.007,102.0,110.0,99.0,13.4,1505.3,324.9,-0.7,1.8,2470.236,13.33,0.05,348.7
2020-04-21T02:28:03,42.805,6.029,-0.006,0.048,-0.006,100.0,112.0,101.0,13.3,1505.3,324.8,-0.7,1.8,2470.236,13.33,0.048,352.9
2020-04-21T02:31:03,42.805,6.029,0.005,0.047,-0.021,101.0,113.0,98.0,13.4,1505.3,324.1,-0.7,1.8,2470.224,13.33,0.047,6.1
2020-04-21T02:34:03,42.805,6.029,-0.023,0.028,-0.03,99.0,111.0,101.0,13.4,1505.3,324.6,-0.7,1.8,2470.241,13.33,0.036,320.6
2020-04-21T02:37:03,42.805,6.029,-0.015,0.032,-0.018,102.0,109.0,101.0,13.4,1505.3,325.3,-0.7,1.8,2470.219,13.33,0.035,334.9
2020-04-21T02:40:03,42.805,6.029,-0.013,0.021,-0.045,102.0,110.0,102.0,13.4,1505.4,327.2,-0.7,1.8,2470.204,13.34,0.024,328.2
2020-04-21T02:43:03,42.805,6.029,-0.025,0.03,-0.021,101.0,111.0,101.0,13.3,1505.4,326.0,-0.7,1.8,2470.208,13.34,0.039,320.2
2020-04-21T02:46:03,42.805,6.029,-0.016,0.009,-0.047,103.0,110.0,101.0,13.4,1505.4,325.4,-0.7,1.9,2470.198,13.34,0.018,299.4
2020-04-21T02:49:03,42.805,6.029,-0.013,0.02,-0.055,102.0,111.0,101.0,13.4,1505.4,326.8,-0.7,1.8,2470.23,13.34,0.023,327.0
2020-04-21T02:52:03,42.805,6.029,0.008,0.01,-0.034,103.0,110.0,100.0,13.4,1505.4,326.9,-0.7,1.8,2470.265,13.34,0.012,38.7
2020-04-21T02:55:03,42.805,6.029,0.013,0.029,-0.007,103.0,111.0,101.0,13.4,1505.4,326.9,-0.7,1.8,2470.237,13.34,0.031,24.1
2020-04-21T02:58:03,42.805,6.029,0.016,0.027,-0.03,103.0,110.0,100.0,13.3,1505.4,325.7,-0.7,1.8,2470.215,13.34,0.031,30.7
2020-04-21T03:04:03,42.805,6.029,0.003,0.016,-0.03,103.0,110.0,101.0,13.4,1505.3,325.1,-0.7,1.8,2470.276,13.32,0.016,10.6
2020-04-21T03:07:03,42.805,6.029,-0.006,0.019,-0.046,102.0,111.0,102.0,13.4,1505.3,328.2,-0.7,1.8,2470.262,13.33,0.019,342.5
2020-04-21T03:10:03,42.805,6.029,0.009,0.012,-0.002,102.0,110.0,101.0,13.4,1505.3,326.1,-0.7,1.8,2470.239,13.33,0.015,36.9
2020-04-21T03:13:03,42.805,6.029,0.025,0.025,-0.022,102.0,110.0,100.0,13.4,1505.3,326.4,-0.7,1.8,2470.258,13.33,0.035,45.0
2020-04-21T03:16:03,42.805,6.029,-0.015,0.021,-0.026,101.0,110.0,100.0,13.4,1505.3,324.8,-0.7,1.8,2470.257,13.33,0.025,324.5
2020-04-21T03:19:03,42.805,6.029,-0.006,0.045,-0.037,103.0,110.0,100.0,13.3,1505.4,326.7,-0.7,1.8,2470.238,13.34,0.045,352.4
2020-04-21T03:22:03,42.805,6.029,-0.007,0.016,-0.048,103.0,110.0,100.0,13.4,1505.4,326.9,-0.7,1.8,2470.253,13.34,0.017,336.4
2020-04-21T03:25:03,42.805,6.029,0.006,0.039,-0.028,101.0,110.0,101.0,13.4,1505.4,325.3,-0.7,1.9,2470.259,13.34,0.039,8.7
2020-04-21T03:28:03,42.805,6.029,-0.002,0.028,-0.027,103.0,111.0,99.0,13.4,1505.4,326.3,-0.7,1.8,2470.271,13.34,0.028,355.9
2020-04-21T03:31:03,42.805,6.029,-0.006,0.008,-0.068,103.0,110.0,100.0,13.4,1505.4,324.1,-0.7,1.8,2470.239,13.34,0.01,323.1
2020-04-21T03:34:03,42.805,6.029,-0.024,0.024,-0.017,104.0,112.0,101.0,13.3,1505.4,325.2,-0.7,1.8,2470.253,13.34,0.033,315.0
2020-04-21T03:37:03,42.805,6.029,0.031,0.022,-0.007,101.0,110.0,100.0,13.4,1505.4,327.8,-0.7,1.8,2470.252,13.34,0.038,54.6
2020-04-21T03:40:03,42.805,6.029,-0.023,0.028,-0.015,104.0,111.0,99.0,13.4,1505.4,325.2,-0.7,1.8,2470.244,13.34,0.036,320.6
2020-04-21T03:43:03,42.805,6.029,-0.004,0.019,-0.03,103.0,110.0,101.0,13.4,1505.4,323.2,-0.7,1.8,2470.243,13.34,0.019,348.1
2020-04-21T03:46:03,42.805,6.029,-0.002,0.021,-0.028,102.0,110.0,99.0,13.3,1505.4,324.3,-0.7,1.8,2470.251,13.34,0.021,354.6
2020-04-21T03:49:03,42.805,6.029,0.018,0.033,0.003,102.0,111.0,101.0,13.4,1505.4,323.2,-0.7,1.8,2470.258,13.34,0.037,28.6
2020-04-21T03:52:03,42.805,6.029,-0.005,0.022,-0.013,101.0,110.0,101.0,13.3,1505.4,325.1,-0.7,1.8,2470.257,13.34,0.022,347.2
2020-04-21T03:55:03,42.805,6.029,0.0,0.0,-0.049,103.0,111.0,100.0,13.3,1505.4,327.9,-0.7,1.8,2470.271,13.34,0.0,0.0
2020-04-21T03:58:03,42.805,6.029,0.008,0.001,-0.029,103.0,111.0,100.0,13.4,1505.3,326.2,-0.7,1.8,2470.295,13.33,0.008,82.9
2020-04-21T04:04:03,42.805,6.029,-0.01,0.036,-0.045,101.0,111.0,100.0,13.3,1505.3,324.5,-0.8,1.8,2470.321,13.32,0.037,344.5
2020-04-21T04:07:03,42.805,6.029,-0.011,0.031,-0.021,102.0,112.0,100.0,13.4,1505.3,326.1,-0.7,1.8,2470.252,13.32,0.032,340.5
2020-04-21T04:10:03,42.805,6.029,-0.004,0.016,-0.043,102.0,114.0,100.0,13.3,1505.3,325.0,-0.7,1.9,2470.351,13.33,0.016,346.0
2020-04-21T04:13:03,42.805,6.029,-0.001,0.042,-0.004,102.0,111.0,100.0,13.4,1505.3,327.7,-0.7,1.8,2470.271,13.33,0.042,358.6
2020-04-21T04:16:03,42.805,6.029,-0.007,0.023,-0.01,103.0,111.0,103.0,13.4,1505.3,326.8,-0.7,1.8,2470.333,13.33,0.024,343.1
2020-04-21T04:22:03,42.805,6.029,-0.015,0.039,-0.029,101.0,109.0,100.0,13.4,1505.3,325.5,-0.8,1.8,2470.329,13.32,0.041,339.0
2020-04-21T04:25:03,42.805,6.029,-0.008,0.025,-0.04,102.0,110.0,100.0,13.4,1505.3,328.3,-0.7,1.9,2470.326,13.32,0.026,342.3
2020-04-21T04:28:03,42.805,6.029,-0.01,0.035,-0.039,104.0,110.0,101.0,13.4,1505.3,327.4,-0.7,1.8,2470.328,13.33,0.036,344.1
2020-04-21T04:31:03,42.805,6.029,-0.005,0.041,-0.025,101.0,110.0,100.0,13.4,1505.3,326.3,-0.7,1.9,2470.307,13.33,0.041,353.0
2020-04-21T04:34:03,42.805,6.029,0.009,0.019,-0.022,103.0,110.0,102.0,13.4,1505.3,323.8,-0.7,1.8,2470.271,13.33,0.021,25.3
2020-04-21T04:37:03,42.805,6.029,0.016,0.0,-0.042,102.0,111.0,102.0,13.4,1505.3,327.0,-0.7,1.8,2470.3,13.33,0.016,90.0
2020-04-21T04:40:03,42.805,6.029,0.02,0.028,-0.018,101.0,110.0,100.0,13.4,1505.4,325.6,-0.7,1.8,2470.297,13.34,0.034,35.5
2020-04-21T04:43:03,42.805,6.029,-0.008,0.037,-0.019,103.0,110.0,100.0,13.4,1505.4,328.3,-0.7,1.8,2470.33,13.34,0.037,347.8
2020-04-21T04:46:03,42.805,6.029,-0.031,0.021,-0.041,103.0,110.0,101.0,13.4,1505.4,326.2,-0.7,1.8,2470.318,13.34,0.037,304.1
2020-04-21T04:49:03,42.805,6.029,0.0,0.025,-0.041,104.0,111.0,101.0,13.4,1505.4,326.1,-0.7,1.8,2470.336,13.34,0.025,0.0
2020-04-21T04:52:03,42.805,6.029,-0.01,0.032,-0.045,101.0,110.0,101.0,13.4,1505.4,327.4,-0.7,1.9,2470.322,13.34,0.033,342.6
2020-04-21T04:55:03,42.805,6.029,0.006,0.019,-0.035,102.0,110.0,101.0,13.4,1505.4,324.9,-0.7,1.8,2470.301,13.34,0.019,17.5
2020-04-21T04:58:03,42.805,6.029,-0.024,0.012,-0.026,101.0,110.0,101.0,13.3,1505.4,327.4,-0.7,1.8,2470.308,13.34,0.026,296.6
2020-04-21T05:04:03,42.805,6.029,0.0,0.022,-0.034,106.0,111.0,100.0,13.3,1505.3,325.0,-0.7,1.8,2470.374,13.32,0.022,0.0
2020-04-21T05:07:03,42.805,6.029,0.006,0.016,-0.061,102.0,110.0,99.0,13.3,1505.3,325.7,-0.8,1.8,2470.346,13.33,0.017,20.6
2020-04-21T05:10:03,42.805,6.029,0.007,0.023,-0.027,103.0,112.0,100.0,13.4,1505.3,326.5,-0.7,1.9,2470.399,13.33,0.024,16.9
2020-04-21T05:13:03,42.805,6.029,0.003,0.027,-0.055,105.0,112.0,100.0,13.3,1505.3,325.2,-0.7,1.9,2470.328,13.33,0.027,6.3
2020-04-21T05:16:03,42.805,6.029,0.002,0.015,-0.038,102.0,110.0,101.0,13.4,1505.4,325.0,-0.7,1.8,2470.341,13.34,0.015,7.6
2020-04-21T05:19:03,42.805,6.029,-0.012,0.026,-0.03,105.0,112.0,100.0,13.4,1505.4,325.1,-0.7,1.8,2470.368,13.34,0.028,335.2
2020-04-21T05:22:03,42.805,6.029,-0.006,0.009,-0.031,107.0,110.0,100.0,13.3,1505.4,327.7,-0.7,1.8,2470.368,13.34,0.01,326.3
2020-04-21T05:25:03,42.805,6.029,0.001,0.011,-0.037,102.0,110.0,100.0,13.3,1505.4,327.0,-0.7,1.8,2470.341,13.34,0.011,5.2
2020-04-21T05:28:03,42.805,6.029,-0.018,0.03,-0.062,102.0,109.0,100.0,13.4,1505.4,328.4,-0.7,1.9,2470.319,13.34,0.034,329.0
2020-04-21T05:31:03,42.805,6.029,-0.003,0.04,-0.053,100.0,111.0,101.0,13.4,1505.4,328.0,-0.7,1.8,2470.387,13.34,0.04,355.7
2020-04-21T05:34:03,42.805,6.029,0.006,0.044,-0.019,102.0,109.0,100.0,13.4,1505.4,327.9,-0.7,1.8,2470.334,13.34,0.044,7.8
2020-04-21T05:37:03,42.805,6.029,-0.009,0.025,-0.036,101.0,111.0,99.0,13.4,1505.4,325.6,-0.7,1.9,2470.352,13.34,0.026,340.2
2020-04-21T05:40:03,42.805,6.029,-0.01,0.043,-0.048,102.0,110.0,101.0,13.4,1505.4,324.2,-0.7,1.8,2470.362,13.34,0.044,346.9
2020-04-21T05:43:02,42.805,6.029,-0.01,0.029,-0.045,102.0,111.0,102.0,13.3,1505.4,324.8,-0.7,1.8,2470.362,13.34,0.03,341.0
2020-04-21T05:46:03,42.805,6.029,-0.015,0.033,-0.035,102.0,111.0,101.0,13.4,1505.3,327.8,-0.7,1.8,2470.345,13.33,0.036,335.6
2020-04-21T05:49:03,42.805,6.029,-0.008,0.023,-0.023,102.0,110.0,101.0,13.4,1505.4,328.5,-0.7,1.8,2470.349,13.34,0.024,340.8
2020-04-21T05:52:03,42.805,6.029,-0.011,0.018,-0.05,101.0,112.0,101.0,13.4,1505.4,324.1,-0.7,1.8,2470.414,13.34,0.021,328.6
2020-04-21T05:55:03,42.805,6.029,-0.024,0.028,-0.046,103.0,110.0,103.0,13.4,1505.4,326.9,-0.7,1.9,2470.326,13.34,0.036,319.4
2020-04-21T05:58:03,42.805,6.029,0.006,0.024,-0.036,102.0,110.0,100.0,13.3,1505.4,323.2,-0.7,1.8,2470.346,13.34,0.024,14.0
2020-04-21T06:04:03,42.805,6.029,-0.023,0.04,-0.048,103.0,110.0,100.0,13.4,1505.3,324.0,-0.8,1.8,2470.383,13.32,0.046,330.1
2020-04-21T06:07:03,42.805,6.029,-0.01,0.016,-0.034,101.0,111.0,100.0,13.3,1505.3,326.8,-0.7,1.8,2470.395,13.32,0.018,328.0
2020-04-21T06:10:03,42.805,6.029,-0.031,0.014,-0.061,104.0,111.0,100.0,13.3,1505.3,322.9,-0.7,1.8,2470.361,13.33,0.034,294.3
2020-04-21T06:13:03,42.805,6.029,0.021,0.042,0.023,103.0,111.0,100.0,13.3,1505.3,324.8,-0.8,1.8,2470.412,13.33,0.046,26.6
2020-04-21T06:16:03,42.805,6.029,-0.019,0.017,-0.062,102.0,111.0,100.0,13.4,1505.3,326.5,-0.7,1.8,2470.337,13.33,0.025,311.8
2020-04-21T06:19:03,42.805,6.029,-0.014,0.026,-0.052,103.0,112.0,99.0,13.4,1505.3,323.5,-0.7,1.8,2470.374,13.33,0.029,331.7
2020-04-21T06:22:03,42.805,6.029,0.001,0.029,-0.049,105.0,109.0,100.0,13.3,1505.4,327.5,-0.7,1.8,2470.345,13.34,0.029,2.0
2020-04-21T06:25:03,42.805,6.029,-0.014,0.036,-0.05,103.0,111.0,98.0,13.4,1505.3,327.2,-0.7,1.8,2470.348,13.33,0.038,338.8
2020-04-21T06:28:03,42.805,6.029,-0.009,0.02,-0.041,103.0,110.0,99.0,13.4,1505.4,324.8,-0.7,1.9,2470.311,13.34,0.021,335.8
2020-04-21T06:31:03,42.805,6.029,-0.01,0.03,-0.012,102.0,111.0,101.0,13.4,1505.3,326.1,-0.7,1.8,2470.399,13.33,0.031,341.6
2020-04-21T06:34:03,42.805,6.029,-0.033,0.053,-0.005,102.0,111.0,101.0,13.4,1505.4,324.0,-0.7,1.9,2470.379,13.34,0.062,328.1
2020-04-21T06:37:03,42.805,6.029,-0.024,0.031,-0.018,103.0,110.0,101.0,13.4,1505.4,324.6,-0.7,1.8,2470.343,13.34,0.039,322.3
2020-04-21T06:40:03,42.805,6.029,-0.004,0.026,-0.024,102.0,111.0,102.0,13.4,1505.3,324.8,-0.7,1.8,2470.353,13.33,0.026,351.3
2020-04-21T06:43:03,42.805,6.029,0.008,0.033,-0.025,104.0,112.0,101.0,13.3,1505.3,325.2,-0.8,1.8,2470.381,13.33,0.033,13.6
2020-04-21T06:46:03,42.805,6.029,0.017,0.013,-0.036,103.0,111.0,101.0,13.3,1505.3,327.9,-0.7,1.8,2470.353,13.33,0.021,52.6
2020-04-21T06:49:03,42.805,6.029,0.004,0.035,-0.015,103.0,111.0,99.0,13.4,1505.4,324.9,-0.7,1.9,2470.398,13.34,0.035,6.5
2020-04-21T06:52:03,42.805,6.029,-0.009,0.028,-0.063,103.0,110.0,101.0,13.4,1505.4,324.1,-0.7,1.8,2470.367,13.34,0.029,342.2
2020-04-21T06:55:03,42.805,6.029,0.003,0.023,-0.022,105.0,111.0,100.0,13.3,1505.4,327.6,-0.7,1.8,2470.36,13.34,0.023,7.4
2020-04-21T06:58:03,42.805,6.029,0.0,0.005,-0.085,104.0,112.0,102.0,13.4,1505.4,327.9,-0.7,1.8,2470.341,13.34,0.005,0.0
2020-04-21T07:04:03,42.805,6.029,0.013,0.026,-0.052,101.0,112.0,99.0,13.4,1505.3,326.0,-0.7,1.8,2470.403,13.32,0.029,26.6
2020-04-21T07:07:03,42.805,6.029,-0.011,0.022,-0.042,101.0,110.0,100.0,13.4,1505.3,325.1,-0.7,1.8,2470.426,13.32,0.024,333.4
2020-04-21T07:10:03,42.805,6.029,-0.006,0.015,-0.036,103.0,111.0,102.0,13.3,1505.3,324.9,-0.7,1.9,2470.38,13.33,0.016,338.2
2020-04-21T07:13:03,42.805,6.029,0.015,0.031,-0.013,101.0,112.0,99.0,13.4,1505.3,324.9,-0.7,1.8,2470.399,13.33,0.034,25.8
2020-04-21T07:16:03,42.805,6.029,-0.025,0.02,-0.039,102.0,111.0,98.0,13.3,1505.3,324.1,-0.7,1.8,2470.382,13.33,0.032,308.7
2020-04-21T07:19:03,42.805,6.029,0.015,0.014,0.001,101.0,113.0,100.0,13.4,1505.3,326.6,-0.7,1.8,2470.407,13.33,0.02,47.0
2020-04-21T07:22:03,42.805,6.029,-0.032,0.036,-0.061,103.0,112.0,100.0,13.3,1505.3,323.5,-0.7,1.8,2470.304,13.33,0.048,318.4
2020-04-21T07:25:03,42.805,6.029,0.025,0.024,-0.028,105.0,112.0,100.0,13.4,1505.3,328.0,-0.7,1.8,2470.358,13.33,0.034,46.2
2020-04-21T07:28:03,42.805,6.029,-0.001,0.02,-0.032,101.0,112.0,100.0,13.4,1505.3,326.7,-0.7,1.8,2470.34,13.33,0.02,357.1
2020-04-21T07:31:03,42.805,6.029,0.02,0.027,-0.028,103.0,111.0,100.0,13.4,1505.4,327.6,-0.7,1.9,2470.372,13.34,0.033,36.5
2020-04-21T07:34:03,42.805,6.029,-0.004,0.044,-0.04,103.0,112.0,100.0,13.4,1505.4,327.0,-0.7,1.8,2470.355,13.34,0.044,354.8
2020-04-21T07:37:03,42.805,6.029,-0.006,0.036,-0.038,100.0,112.0,100.0,13.4,1505.3,327.9,-0.7,1.8,2470.361,13.33,0.036,350.5
2020-04-21T07:40:03,42.805,6.029,-0.003,0.021,-0.041,103.0,111.0,100.0,13.4,1505.3,322.7,-0.7,1.8,2470.356,13.33,0.021,351.9
2020-04-21T07:43:03,42.805,6.029,-0.011,0.02,-0.052,102.0,111.0,102.0,13.4,1505.3,326.3,-0.7,1.9,2470.344,13.33,0.022,331.2
2020-04-21T07:46:03,42.805,6.029,-0.012,0.044,-0.031,103.0,112.0,101.0,13.4,1505.4,326.4,-0.7,1.8,2470.311,13.34,0.045,344.7
2020-04-21T07:49:03,42.805,6.029,-0.013,0.008,-0.023,101.0,112.0,100.0,13.4,1505.3,328.1,-0.7,1.8,2470.358,13.33,0.015,301.6
2020-04-21T07:52:03,42.805,6.029,-0.028,0.023,-0.055,102.0,111.0,100.0,13.4,1505.3,327.8,-0.7,1.8,2470.337,13.33,0.036,309.4
2020-04-21T07:55:03,42.805,6.029,0.002,0.033,-0.028,102.0,111.0,100.0,13.3,1505.4,326.2,-0.7,1.9,2470.355,13.34,0.033,3.5
2020-04-21T07:58:03,42.805,6.029,-0.024,0.022,-0.062,103.0,112.0,101.0,13.3,1505.4,324.9,-0.7,1.8,2470.352,13.34,0.032,312.5
2020-04-21T08:04:03,42.805,6.029,-0.01,0.026,-0.066,103.0,111.0,100.0,13.4,1505.3,328.2,-0.7,1.8,2470.373,13.31,0.027,339.0
2020-04-21T08:07:03,42.805,6.029,0.007,0.006,-0.039,103.0,112.0,100.0,13.4,1505.3,327.5,-0.7,1.8,2470.378,13.32,0.009,49.4
2020-04-21T08:10:03,42.805,6.029,-0.014,0.032,-0.041,102.0,111.0,100.0,13.3,1505.3,327.6,-0.7,1.8,2470.361,13.33,0.034,336.4
2020-04-21T08:13:03,42.805,6.029,-0.018,0.041,-0.031,104.0,109.0,99.0,13.4,1505.3,327.9,-0.7,1.8,2470.313,13.33,0.044,336.3
2020-04-21T08:16:03,42.805,6.029,0.003,0.033,-0.052,104.0,112.0,99.0,13.4,1505.3,326.0,-0.7,1.8,2470.33,13.33,0.033,5.2
2020-04-21T08:19:03,42.805,6.029,-0.014,0.044,-0.016,102.0,111.0,101.0,13.4,1505.3,324.8,-0.7,1.8,2470.372,13.33,0.046,342.4
2020-04-21T08:22:03,42.805,6.029,-0.017,0.031,-0.039,104.0,113.0,99.0,13.4,1505.3,324.0,-0.7,1.8,2470.369,13.33,0.035,331.3
2020-04-21T08:25:03,42.805,6.029,-0.003,0.012,-0.036,103.0,112.0,102.0,13.3,1505.3,324.7,-0.7,1.8,2470.336,13.33,0.012,346.0
2020-04-21T08:28:03,42.805,6.029,-0.017,0.033,-0.034,104.0,112.0,100.0,13.4,1505.3,324.5,-0.7,1.8,2470.325,13.33,0.037,332.7
2020-04-21T08:31:03,42.805,6.029,-0.005,0.028,0.001,103.0,112.0,100.0,13.4,1505.3,325.8,-0.7,1.8,2470.318,13.33,0.028,349.9
2020-04-21T08:34:03,42.805,6.029,-0.008,0.034,-0.026,102.0,112.0,102.0,13.4,1505.4,326.4,-0.7,1.8,2470.328,13.34,0.034,346.8
2020-04-21T08:37:03,42.805,6.029,-0.005,0.05,-0.025,104.0,112.0,100.0,13.4,1505.4,325.6,-0.7,1.8,2470.32,13.34,0.05,354.3
2020-04-21T08:40:03,42.805,6.029,0.013,0.043,-0.029,102.0,111.0,101.0,13.4,1505.4,323.1,-0.7,1.8,2470.302,13.34,0.044,16.8
2020-04-21T08:43:03,42.805,6.029,0.0,0.022,-0.021,103.0,113.0,101.0,13.4,1505.4,327.9,-0.7,1.8,2470.338,13.34,0.022,0.0
2020-04-21T08:46:03,42.805,6.029,-0.005,0.032,-0.038,101.0,112.0,100.0,13.4,1505.3,324.7,-0.7,1.8,2470.32,13.33,0.032,351.1
2020-04-21T08:49:03,42.805,6.029,-0.009,0.02,-0.05,102.0,114.0,100.0,13.3,1505.3,324.1,-0.7,1.8,2470.3,13.33,0.021,335.8
2020-04-21T08:52:03,42.805,6.029,-0.006,0.043,-0.01,102.0,110.0,100.0,13.4,1505.3,326.9,-0.7,1.8,2470.305,13.33,0.043,352.1
2020-04-21T08:55:03,42.805,6.029,0.012,0.064,0.0,102.0,113.0,100.0,13.4,1505.3,324.6,-0.7,1.9,2470.307,13.33,0.065,10.6
2020-04-21T08:58:03,42.805,6.029,-0.011,0.046,-0.04,103.0,111.0,101.0,13.4,1505.3,326.1,-0.7,1.8,2470.342,13.33,0.047,346.6
2020-04-21T09:04:03,42.805,6.029,-0.019,0.039,-0.047,104.0,112.0,100.0,13.3,1505.3,325.6,-0.7,1.8,2470.319,13.31,0.043,334.0
2020-04-21T09:07:03,42.805,6.029,-0.034,0.033,-0.024,105.0,112.0,100.0,13.4,1505.3,324.0,-0.7,1.8,2470.323,13.32,0.047,314.1
2020-04-21T09:10:03,42.805,6.029,-0.035,0.031,-0.019,101.0,112.0,103.0,13.4,1505.3,327.0,-0.7,1.8,2470.331,13.32,0.046,311.5
2020-04-21T09:13:03,42.805,6.029,-0.007,0.024,-0.04,103.0,113.0,102.0,13.4,1505.3,324.1,-0.7,1.8,2470.322,13.33,0.025,343.7
2020-04-21T09:19:03,42.805,6.029,-0.002,0.019,-0.045,103.0,113.0,102.0,13.4,1505.3,327.1,-0.8,1.8,2470.327,13.31,0.019,354.0
2020-04-21T09:22:03,42.805,6.029,-0.031,0.029,-0.076,103.0,112.0,102.0,13.4,1505.3,327.4,-0.7,1.8,2470.321,13.32,0.042,313.1
2020-04-21T09:25:03,42.805,6.029,-0.04,0.046,-0.051,103.0,113.0,100.0,13.4,1505.3,323.9,-0.7,1.8,2470.32,13.32,0.06,319.0
2020-04-21T09:28:03,42.805,6.029,-0.018,0.023,-0.055,104.0,111.0,100.0,13.4,1505.3,324.4,-0.7,1.8,2470.318,13.33,0.029,322.0
2020-04-21T09:31:03,42.805,6.029,-0.018,0.029,-0.031,103.0,113.0,100.0,13.4,1505.3,323.8,-0.7,1.8,2470.299,13.33,0.034,328.2
2020-04-21T09:34:03,42.805,6.029,0.007,0.058,0.004,103.0,113.0,100.0,13.4,1505.3,326.3,-0.7,1.9,2470.28,13.33,0.058,6.9
2020-04-21T09:37:03,42.805,6.029,0.004,0.03,-0.017,103.0,113.0,101.0,13.4,1505.3,328.5,-0.7,1.9,2470.287,13.33,0.03,7.6
2020-04-21T09:40:03,42.805,6.029,-0.013,0.04,-0.054,102.0,112.0,101.0,13.4,1505.3,323.6,-0.6,1.8,2470.3,13.33,0.042,342.0
2020-04-21T09:43:03,42.805,6.029,-0.017,0.019,-0.018,102.0,112.0,104.0,13.4,1505.3,323.5,-0.7,1.9,2470.286,13.33,0.025,318.2
2020-04-21T09:46:03,42.805,6.029,0.001,0.043,0.0,104.0,113.0,101.0,13.4,1505.3,325.7,-0.7,1.9,2470.27,13.33,0.043,1.3
2020-04-21T09:49:03,42.805,6.029,-0.007,0.036,-0.042,104.0,112.0,100.0,13.4,1505.3,326.2,-0.8,1.8,2470.223,13.33,0.036,349.0
2020-04-21T09:52:03,42.805,6.029,-0.005,0.04,0.002,104.0,113.0,100.0,13.4,1505.3,325.8,-0.7,1.8,2470.302,13.33,0.04,352.9
2020-04-21T09:55:03,42.805,6.029,-0.023,0.038,-0.042,102.0,113.0,99.0,13.4,1505.3,325.6,-0.7,1.8,2470.31,13.33,0.044,328.8
2020-04-21T09:58:03,42.805,6.029,-0.003,0.032,-0.038,103.0,113.0,101.0,13.4,1505.3,326.1,-0.7,1.8,2470.271,13.33,0.032,354.6
2020-04-21T10:04:03,42.805,6.029,0.011,0.032,-0.043,103.0,111.0,101.0,13.3,1505.3,327.0,-0.8,1.8,2470.302,13.31,0.033,19.0
2020-04-21T10:07:03,42.805,6.029,-0.013,0.044,-0.036,104.0,113.0,99.0,13.4,1505.3,326.9,-0.7,1.8,2470.308,13.32,0.045,343.5